Погода в Найстенъярви

Россия / Республика Карелия     62°18′12″N   32°40′47″E
темп.,
°C
ветер,
м/с
пор.,
м/с
влажн.,
%
обл.,
%
осадки,
мм/ч
давл.,
гПа
погр.,
м
13 апреля, вт
вт1300:00+6ю31691100 0.0 1021375
03:00+5ю31392100 0.0 1019336
06:00+4ю31194100 0.0 1019255
09:00+6ю41189100 0.0 1018340
12:00+10ююз488081 0.0 1018545
15:00+12юз4775100 0.0 1018941
18:00+8юз3892100 0.0 1018467
21:00+6юз2798100 0.1 1019271
14 апреля, ср
ср1400:00+5зюз14100100 0.0 1018139
03:00+4сз2696100 0.9 1018331
06:00+2ссз2698100 1.7 1017418
09:00+3зюз1394100 2.4 1017253
12:00+6з4558100 0.0 10181025
15:00+7зсз4655100 0.0 10191366
18:00+6сз46625 0.0 10201309
21:00+1сз38815 0.0 1024383
15 апреля, чт
чт1500:00−1ссз278771 0.0 1025219
03:00−1ссз2788100 0.0 1026197
06:00−1с248590 0.0 1028107
09:00+3ссв23624 0.0 1029583
12:00+5ссв23450 0.0 10291078
15:00+7ссв22410 0.0 10291245
18:00+7с22470 0.0 10291168
21:00
16 апреля, пт
пт1600:000ссз11745 0.0 103110
03:000сз11736 0.0 103110
06:000сз228128 0.0 103124
09:00+5с24696 0.0 1032385
12:00+8ссв24557 0.0 10321021
15:00+10ссв344894 0.0 10321384
18:00+9св345331 0.0 10321027
21:00+4всв387295 0.0 1036256
17 апреля, сб
сб1700:00+3св228347 0.0 103512
03:00+1с228716 0.0 103612
06:00+1ссв239111 0.0 103756
09:00+6ссв23736 0.0 1037351
12:00+9с23505 0.0 10371040
15:00+11с23405 0.0 10361530
18:00+11с23415 0.0 10351532
21:00+6ссз22614 0.0 103611